Surface weather observations from New York State from the past hour:

KSWF 281745Z 02009KT 10SM SCT045 22/10 A3017=

Return to: Albany Weather Page

Return to: Department of Atmospheric and Environmental Sciences Homepage


Comments to daesweb@albany.edu